This demonstration page uses our WeatherBlox Daily Observations layout. Learn more.

Left ArrowRight Arrow

Hourly Observations for May 15, 2020

Temp ( °F °C ) Dew Point ( °F °C ) Humidity (%) Winds ( mph kmh ) Pressure ( in mb ) Visibility ( mi km ) Precip ( " mm )
12:53 am 00:53 Clear 68 20 56 13.3 65 65 N N/A 29.97 1015 10 16.0934 N/A
1:53 am 01:53 Clear 66 18.9 56 13.3 70 70 VRB 3 6 29.95 1014 10 16.0934 N/A
2:53 am 02:53 Clear 66 18.9 55 12.8 68 68 VRB 3 6 29.95 1014 10 16.0934 N/A
3:53 am 03:53 Clear 59 15 54 12.2 83 83 E 3 6 29.94 1014 10 16.0934 N/A
4:53 am 04:53 Partly Cloudy 61 16.1 54 12.2 78 78 N N/A 29.95 1014 10 16.0934 N/A
5:53 am 05:53 Clear 60 15.6 55 12.8 84 84 N N/A 29.96 1015 10 16.0934 N/A
6:53 am 06:53 Partly Cloudy 68 20 57 13.9 68 68 SSW 6 9 29.95 1014 10 16.0934 N/A
7:53 am 07:53 Mostly Sunny 69 20.6 57 13.9 66 66 VRB 6 9 29.96 1015 10 16.0934 N/A
8:53 am 08:53 Cloudy 67 19.4 60 15.6 79 79 VRB 3 6 29.96 1015 10 16.0934 0.01 0.254
9:53 am 09:53 Cloudy 70 21.1 59 15 68 68 SSW 7 11 29.96 1014 10 16.0934 N/A
10:53 am 10:53 Mostly Sunny 74 23.3 60 15.6 62 62 SW 16 26 29.94 1014 10 16.0934 N/A
11:53 am 11:53 Mostly Cloudy 74 23.3 60 15.6 62 62 SW 10 17 29.95 1014 10 16.0934 N/A
12:53 pm 12:53 Cloudy 73 22.8 60 15.6 64 64 SW 10 17 29.95 1014 10 16.0934 N/A
1:53 pm 13:53 Cloudy with Light Rain 69 20.6 60 15.6 73 73 SW 16 26 29.94 1014 10 16.0934 0.001 0.001
2:53 pm 14:53 Cloudy with Light Rain 70 21.1 62 16.7 76 76 SW 12 19 29.95 1014 10 16.0934 0.001 0.001
3:53 pm 15:53 Cloudy with Light Rain 70 21.1 62 16.7 76 76 WSW 9 15 29.96 1015 10 16.0934 0.001 0.001
4:53 pm 16:53 Cloudy 70 21.1 63 17.2 79 79 SW 5 7 29.96 1014 10 16.0934 0.001 0.001
5:53 pm 17:53 Mostly Cloudy 72 22.2 63 17.2 73 73 WSW 10 17 29.96 1014 10 16.0934 N/A
6:53 pm 18:53 Mostly Cloudy 73 22.8 64 17.8 74 74 WSW 5 7 29.96 1015 10 16.0934 0.01 0.254
7:53 pm 19:53 Mostly Cloudy 73 22.8 62 16.7 69 69 W 5 7 29.97 1015 10 16.0934 N/A
8:53 pm 20:53 Mostly Clear 66 18.9 62 16.7 87 87 N N/A 29.98 1015 10 16.0934 N/A
9:53 pm 21:53 Clear 62 16.7 60 15.6 93 93 N N/A 29.99 1016 10 16.0934 N/A
10:53 pm 22:53 Clear 60 15.6 59 15 96 96 N N/A 30.01 1016 10 16.0934 N/A
11:53 pm 23:53 Clear 59 15 58 14.4 96 96 N N/A 30.01 1016 7 11.26538 N/A

Powered by AerisWeather